Year,Month,Day,Hour,Minute,Value (Times are PST for temperature in C)
2018,03,27,09,02,9.10
2018,03,27,09,03,9.10
2018,03,27,09,04,9.10
2018,03,27,09,05,9.10
2018,03,27,09,06,9.10
2018,03,27,09,07,9.10
2018,03,27,09,08,9.10
2018,03,27,09,09,9.10
2018,03,27,09,10,9.10
2018,03,27,09,11,9.10
2018,03,27,09,12,9.10
2018,03,27,09,13,9.10
2018,03,27,09,14,9.10
2018,03,27,09,15,9.10
2018,03,27,09,16,9.10
2018,03,27,09,17,9.10
2018,03,27,09,18,9.10
2018,03,27,09,19,9.10
2018,03,27,09,20,9.20
2018,03,27,09,21,9.20
2018,03,27,09,22,9.20
2018,03,27,09,23,9.20
2018,03,27,09,24,9.20
2018,03,27,09,25,9.20
2018,03,27,09,26,9.30
2018,03,27,09,27,9.30
2018,03,27,09,28,9.30
2018,03,27,09,29,9.40
2018,03,27,09,30,9.40
2018,03,27,09,31,9.50
2018,03,27,09,32,9.50
2018,03,27,09,33,9.60
2018,03,27,09,34,9.60
2018,03,27,09,35,9.60
2018,03,27,09,36,9.70
2018,03,27,09,37,9.70
2018,03,27,09,38,9.70
2018,03,27,09,39,9.80
2018,03,27,09,40,9.80
2018,03,27,09,41,9.90
2018,03,27,09,42,9.90
2018,03,27,09,43,9.90
2018,03,27,09,44,10.00
2018,03,27,09,45,10.00
2018,03,27,09,46,10.10
2018,03,27,09,47,10.10
2018,03,27,09,48,10.20
2018,03,27,09,49,10.20
2018,03,27,09,50,10.30
2018,03,27,09,51,10.30
2018,03,27,09,52,10.40
2018,03,27,09,53,10.40
2018,03,27,09,54,10.50
2018,03,27,09,55,10.50
2018,03,27,09,56,10.60
2018,03,27,09,57,10.60
2018,03,27,09,58,10.60
2018,03,27,09,59,10.70
2018,03,27,10,00,10.70
2018,03,27,10,01,10.80
2018,03,27,10,02,10.80
2018,03,27,10,03,10.80
2018,03,27,10,04,10.80
2018,03,27,10,05,10.80
2018,03,27,10,06,10.80
2018,03,27,10,07,10.90
2018,03,27,10,08,10.90
2018,03,27,10,09,10.90
2018,03,27,10,10,10.90
2018,03,27,10,11,10.90
2018,03,27,10,12,10.90
2018,03,27,10,13,10.90
2018,03,27,10,14,11.00
2018,03,27,10,15,11.00
2018,03,27,10,16,11.00
2018,03,27,10,17,11.00
2018,03,27,10,18,11.00
2018,03,27,10,19,11.00
2018,03,27,10,20,11.10
2018,03,27,10,21,11.10
2018,03,27,10,22,11.10
2018,03,27,10,23,11.10
2018,03,27,10,24,11.10
2018,03,27,10,25,11.10
2018,03,27,10,26,11.20
2018,03,27,10,27,11.20
2018,03,27,10,28,11.20
2018,03,27,10,29,11.20
2018,03,27,10,30,11.30
2018,03,27,10,31,11.30
2018,03,27,10,32,11.30
2018,03,27,10,33,11.30
2018,03,27,10,34,11.40
2018,03,27,10,35,11.40
2018,03,27,10,36,11.40
2018,03,27,10,37,11.50
2018,03,27,10,38,11.50
2018,03,27,10,39,11.50
2018,03,27,10,40,11.60
2018,03,27,10,41,11.60
2018,03,27,10,42,11.60
2018,03,27,10,43,11.70
2018,03,27,10,44,11.60
2018,03,27,10,45,11.70
2018,03,27,10,46,11.70
2018,03,27,10,47,11.70
2018,03,27,10,48,11.80
2018,03,27,10,49,11.80
2018,03,27,10,50,11.80
2018,03,27,10,51,11.80
2018,03,27,10,52,11.90
2018,03,27,10,53,11.90
2018,03,27,10,54,12.00
2018,03,27,10,55,12.00
2018,03,27,10,56,12.10
2018,03,27,10,57,12.10
2018,03,27,10,58,12.20
2018,03,27,10,59,12.20
2018,03,27,11,00,12.20
2018,03,27,11,01,12.30
2018,03,27,11,02,12.30
2018,03,27,11,03,12.30
2018,03,27,11,04,12.40
2018,03,27,11,05,12.40
2018,03,27,11,06,12.50
2018,03,27,11,07,12.50
2018,03,27,11,08,12.50
2018,03,27,11,09,12.60
2018,03,27,11,10,12.60
2018,03,27,11,11,12.60
2018,03,27,11,12,12.60
2018,03,27,11,13,12.70
2018,03,27,11,14,12.70
2018,03,27,11,15,12.70
2018,03,27,11,16,12.80
2018,03,27,11,17,12.80
2018,03,27,11,18,12.80
2018,03,27,11,19,12.80
2018,03,27,11,20,12.90
2018,03,27,11,21,12.90
2018,03,27,11,22,12.90
2018,03,27,11,23,13.00
2018,03,27,11,24,13.10
2018,03,27,11,25,13.10
2018,03,27,11,26,13.20
2018,03,27,11,27,13.30
2018,03,27,11,28,13.30
2018,03,27,11,29,13.40
2018,03,27,11,30,13.40
2018,03,27,11,31,13.50
2018,03,27,11,32,13.50
2018,03,27,11,33,13.60
2018,03,27,11,34,13.70
2018,03,27,11,35,13.80
2018,03,27,11,36,13.80
2018,03,27,11,37,13.90
2018,03,27,11,38,14.00
2018,03,27,11,39,14.10
2018,03,27,11,40,14.10
2018,03,27,11,41,14.20
2018,03,27,11,42,14.20
2018,03,27,11,43,14.30
2018,03,27,11,44,14.30
2018,03,27,11,45,14.40
2018,03,27,11,46,14.40
2018,03,27,11,47,14.50
2018,03,27,11,48,14.60
2018,03,27,11,49,14.60
2018,03,27,11,50,14.70
2018,03,27,11,51,14.70
2018,03,27,11,52,14.80
2018,03,27,11,53,14.80
2018,03,27,11,54,14.90
2018,03,27,11,55,14.80
2018,03,27,11,56,14.80
2018,03,27,11,57,14.90
2018,03,27,11,58,14.90
2018,03,27,11,59,15.00
2018,03,27,12,00,15.00
2018,03,27,12,01,14.90
2018,03,27,12,02,15.00
2018,03,27,12,03,14.90
2018,03,27,12,04,15.00
2018,03,27,12,05,14.90
2018,03,27,12,06,14.80
2018,03,27,12,07,14.80
2018,03,27,12,08,14.90
2018,03,27,12,09,14.90
2018,03,27,12,10,14.90
2018,03,27,12,11,15.00
2018,03,27,12,12,15.00
2018,03,27,12,13,15.00
2018,03,27,12,14,15.00
2018,03,27,12,15,15.00
2018,03,27,12,16,15.00
2018,03,27,12,17,15.00
2018,03,27,12,18,15.00
2018,03,27,12,19,15.00
2018,03,27,12,20,15.00
2018,03,27,12,21,15.00
2018,03,27,12,22,15.00
2018,03,27,12,23,15.00
2018,03,27,12,24,15.00
2018,03,27,12,25,15.00
2018,03,27,12,26,15.00
2018,03,27,12,27,15.00
2018,03,27,12,28,15.00
2018,03,27,12,29,15.00
2018,03,27,12,30,15.10
2018,03,27,12,31,15.10
2018,03,27,12,32,15.10
2018,03,27,12,33,15.10
2018,03,27,12,34,15.20
2018,03,27,12,35,15.20
2018,03,27,12,36,15.20
2018,03,27,12,37,15.30
2018,03,27,12,38,15.40
2018,03,27,12,39,15.40
2018,03,27,12,40,15.50
2018,03,27,12,41,15.50
2018,03,27,12,42,15.60
2018,03,27,12,43,15.60
2018,03,27,12,44,15.70
2018,03,27,12,45,15.80
2018,03,27,12,46,15.80
2018,03,27,12,47,15.80
2018,03,27,12,48,15.80
2018,03,27,12,49,15.80
2018,03,27,12,50,15.80
2018,03,27,12,51,15.90
2018,03,27,12,52,15.90
2018,03,27,12,53,16.00
2018,03,27,12,54,16.00
2018,03,27,12,55,16.10
2018,03,27,12,56,16.10
2018,03,27,12,57,16.10
2018,03,27,12,58,16.00
2018,03,27,12,59,16.00
2018,03,27,13,00,16.00
2018,03,27,13,01,16.00
2018,03,27,13,02,16.10
2018,03,27,13,03,16.20
2018,03,27,13,04,16.30
2018,03,27,13,05,16.30
2018,03,27,13,06,16.40
2018,03,27,13,07,16.40
2018,03,27,13,08,16.40
2018,03,27,13,09,16.40
2018,03,27,13,10,16.30
2018,03,27,13,11,16.30
2018,03,27,13,12,16.20
2018,03,27,13,13,16.20
2018,03,27,13,14,16.20
2018,03,27,13,15,16.20
2018,03,27,13,16,16.20
2018,03,27,13,17,16.10
2018,03,27,13,18,16.10
2018,03,27,13,19,16.10
2018,03,27,13,20,16.20
2018,03,27,13,21,16.30
2018,03,27,13,22,16.20
2018,03,27,13,23,16.20
2018,03,27,13,24,16.20
2018,03,27,13,25,16.20
2018,03,27,13,26,16.30
2018,03,27,13,27,16.30
2018,03,27,13,28,16.20
2018,03,27,13,29,16.10
2018,03,27,13,30,16.10
2018,03,27,13,31,16.10
2018,03,27,13,32,16.20
2018,03,27,13,33,16.20
2018,03,27,13,34,16.20
2018,03,27,13,35,16.20
2018,03,27,13,36,16.30
2018,03,27,13,37,16.30
2018,03,27,13,38,16.30
2018,03,27,13,39,16.20
2018,03,27,13,40,16.10
2018,03,27,13,41,16.10
2018,03,27,13,42,16.20
2018,03,27,13,43,16.20
2018,03,27,13,44,16.30
2018,03,27,13,45,16.30
2018,03,27,13,46,16.30
2018,03,27,13,47,16.40
2018,03,27,13,48,16.40
2018,03,27,13,49,16.40
2018,03,27,13,50,16.50
2018,03,27,13,51,16.60
2018,03,27,13,52,16.60
2018,03,27,13,53,16.60
2018,03,27,13,54,16.70
2018,03,27,13,55,16.60
2018,03,27,13,56,16.60
2018,03,27,13,57,16.60
2018,03,27,13,58,16.60
2018,03,27,13,59,16.60
2018,03,27,14,00,16.60
2018,03,27,14,01,16.70
2018,03,27,14,02,16.70
2018,03,27,14,03,16.70
2018,03,27,14,04,16.80
2018,03,27,14,05,16.80
2018,03,27,14,06,16.80
2018,03,27,14,07,16.70
2018,03,27,14,08,16.70
2018,03,27,14,09,16.70
2018,03,27,14,10,16.60
2018,03,27,14,11,16.60
2018,03,27,14,12,16.60
2018,03,27,14,13,16.60
2018,03,27,14,14,16.60
2018,03,27,14,15,16.70
2018,03,27,14,16,16.80
2018,03,27,14,17,16.80
2018,03,27,14,18,16.90
2018,03,27,14,19,16.90
2018,03,27,14,20,17.00
2018,03,27,14,21,17.00
2018,03,27,14,22,17.00
2018,03,27,14,23,17.00
2018,03,27,14,24,17.00
2018,03,27,14,25,17.00
2018,03,27,14,26,17.00
2018,03,27,14,27,17.00
2018,03,27,14,28,17.00
2018,03,27,14,29,16.90
2018,03,27,14,30,16.80
2018,03,27,14,31,16.70
2018,03,27,14,32,16.70
2018,03,27,14,33,16.70
2018,03,27,14,34,16.70
2018,03,27,14,35,16.70
2018,03,27,14,36,16.70
2018,03,27,14,37,16.70
2018,03,27,14,38,16.70
2018,03,27,14,39,16.50
2018,03,27,14,40,16.50
2018,03,27,14,41,16.40
2018,03,27,14,42,16.20
2018,03,27,14,43,16.20
2018,03,27,14,44,16.10
2018,03,27,14,45,16.10
2018,03,27,14,46,16.10
2018,03,27,14,47,16.10
2018,03,27,14,48,16.10
2018,03,27,14,49,16.30
2018,03,27,14,50,16.40
2018,03,27,14,51,16.60
2018,03,27,14,52,16.70
2018,03,27,14,53,16.80
2018,03,27,14,54,16.80
2018,03,27,14,55,16.90
2018,03,27,14,56,16.80
2018,03,27,14,57,16.90
2018,03,27,14,58,16.90
2018,03,27,14,59,16.90
2018,03,27,15,00,16.90
2018,03,27,15,01,16.90
2018,03,27,15,02,16.90
2018,03,27,15,03,16.90
2018,03,27,15,04,16.80
2018,03,27,15,05,16.70
2018,03,27,15,06,16.70
2018,03,27,15,07,16.60
2018,03,27,15,08,16.60
2018,03,27,15,09,16.50
2018,03,27,15,10,16.40
2018,03,27,15,11,16.40
2018,03,27,15,12,16.40
2018,03,27,15,13,16.40
2018,03,27,15,14,16.40
2018,03,27,15,15,16.50
2018,03,27,15,16,16.60
2018,03,27,15,17,16.60
2018,03,27,15,18,16.70
2018,03,27,15,19,16.70
2018,03,27,15,20,16.70
2018,03,27,15,21,16.70
2018,03,27,15,22,16.60
2018,03,27,15,23,16.50
2018,03,27,15,24,16.40
2018,03,27,15,25,16.40
2018,03,27,15,26,16.40
2018,03,27,15,27,16.40
2018,03,27,15,28,16.40
2018,03,27,15,29,16.40
2018,03,27,15,30,16.40
2018,03,27,15,31,16.40
2018,03,27,15,32,16.50
2018,03,27,15,33,16.50
2018,03,27,15,34,16.50
2018,03,27,15,35,16.50
2018,03,27,15,36,16.50
2018,03,27,15,37,16.50
2018,03,27,15,38,16.40
2018,03,27,15,39,16.40
2018,03,27,15,40,16.30
2018,03,27,15,41,16.30
2018,03,27,15,42,16.30
2018,03,27,15,43,16.20
2018,03,27,15,44,16.10
2018,03,27,15,45,16.10
2018,03,27,15,46,16.00
2018,03,27,15,47,16.00
2018,03,27,15,48,16.00
2018,03,27,15,49,16.00
2018,03,27,15,50,16.00
2018,03,27,15,51,16.10
2018,03,27,15,52,16.10
2018,03,27,15,53,16.10
2018,03,27,15,54,16.20
2018,03,27,15,55,16.10
2018,03,27,15,56,16.10
2018,03,27,15,57,16.10
2018,03,27,15,58,16.20
2018,03,27,15,59,16.20
2018,03,27,16,00,16.20
2018,03,27,16,01,16.30
2018,03,27,16,02,16.30
2018,03,27,16,03,16.30
2018,03,27,16,04,16.30
2018,03,27,16,05,16.40
2018,03,27,16,06,16.40
2018,03,27,16,07,16.50
2018,03,27,16,08,16.50
2018,03,27,16,09,16.60
2018,03,27,16,10,16.60
2018,03,27,16,11,16.60
2018,03,27,16,12,16.60
2018,03,27,16,13,16.60
2018,03,27,16,14,16.60
2018,03,27,16,15,16.60
2018,03,27,16,16,16.70
2018,03,27,16,17,16.70
2018,03,27,16,18,16.70
2018,03,27,16,19,16.80
2018,03,27,16,20,16.70
2018,03,27,16,21,16.70
2018,03,27,16,22,16.70
2018,03,27,16,23,16.70
2018,03,27,16,24,16.80
2018,03,27,16,25,16.80
2018,03,27,16,26,16.80
2018,03,27,16,27,16.80
2018,03,27,16,28,16.80
2018,03,27,16,29,16.80
2018,03,27,16,30,16.80
2018,03,27,16,31,16.80
2018,03,27,16,32,16.80
2018,03,27,16,33,16.80
2018,03,27,16,34,16.80
2018,03,27,16,35,16.80
2018,03,27,16,36,16.70
2018,03,27,16,37,16.60
2018,03,27,16,38,16.60
2018,03,27,16,39,16.50
2018,03,27,16,40,16.40
2018,03,27,16,41,16.30
2018,03,27,16,42,16.30
2018,03,27,16,43,16.30
2018,03,27,16,44,16.30
2018,03,27,16,45,16.20
2018,03,27,16,46,16.30
2018,03,27,16,47,16.30
2018,03,27,16,48,16.30
2018,03,27,16,49,16.30
2018,03,27,16,50,16.30
2018,03,27,16,51,16.30
2018,03,27,16,52,16.30
2018,03,27,16,53,16.30
2018,03,27,16,54,16.20
2018,03,27,16,55,16.20
2018,03,27,16,56,16.20
2018,03,27,16,57,16.20
2018,03,27,16,58,16.20
2018,03,27,16,59,16.10
2018,03,27,17,00,16.10
2018,03,27,17,01,16.10
2018,03,27,17,02,16.00
2018,03,27,17,03,15.90
2018,03,27,17,04,15.80
2018,03,27,17,05,15.80
2018,03,27,17,06,15.80
2018,03,27,17,07,15.80
2018,03,27,17,08,15.80
2018,03,27,17,09,15.80
2018,03,27,17,10,15.70
2018,03,27,17,11,15.70
2018,03,27,17,12,15.70
2018,03,27,17,13,15.70
2018,03,27,17,14,15.70
2018,03,27,17,15,15.60
2018,03,27,17,16,15.60
2018,03,27,17,17,15.60
2018,03,27,17,18,15.60
2018,03,27,17,19,15.60
2018,03,27,17,20,15.50
2018,03,27,17,21,15.50
2018,03,27,17,22,15.50
2018,03,27,17,23,15.50
2018,03,27,17,24,15.40
2018,03,27,17,25,15.40
2018,03,27,17,26,15.50
2018,03,27,17,27,15.50
2018,03,27,17,28,15.50
2018,03,27,17,29,15.50
2018,03,27,17,30,15.40
2018,03,27,17,31,15.20
2018,03,27,17,32,15.00
2018,03,27,17,33,15.00
2018,03,27,17,34,15.00
2018,03,27,17,35,15.00
2018,03,27,17,36,14.90
2018,03,27,17,37,14.80
2018,03,27,17,38,14.80
2018,03,27,17,39,14.70
2018,03,27,17,40,14.60
2018,03,27,17,41,14.60
2018,03,27,17,42,14.60
2018,03,27,17,43,14.50
2018,03,27,17,44,14.50
2018,03,27,17,45,14.40
2018,03,27,17,46,14.40
2018,03,27,17,47,14.40
2018,03,27,17,48,14.30
2018,03,27,17,49,14.30
2018,03,27,17,50,14.20
2018,03,27,17,51,14.20
2018,03,27,17,52,14.20
2018,03,27,17,53,14.20
2018,03,27,17,54,14.10
2018,03,27,17,55,14.10
2018,03,27,17,56,14.10
2018,03,27,17,57,14.10
2018,03,27,17,58,14.00
2018,03,27,17,59,14.00
2018,03,27,18,00,14.00
2018,03,27,18,01,13.90
2018,03,27,18,02,13.90
2018,03,27,18,03,13.90
2018,03,27,18,04,13.90
2018,03,27,18,05,13.80
2018,03,27,18,06,13.80
2018,03,27,18,07,13.80
2018,03,27,18,08,13.80
2018,03,27,18,09,13.80
2018,03,27,18,10,13.70
2018,03,27,18,11,13.70
2018,03,27,18,12,13.70
2018,03,27,18,13,13.70
2018,03,27,18,14,13.60
2018,03,27,18,15,13.60
2018,03,27,18,16,13.60
2018,03,27,18,17,13.60
2018,03,27,18,18,13.60
2018,03,27,18,19,13.60
2018,03,27,18,20,13.60
2018,03,27,18,21,13.50
2018,03,27,18,22,13.50
2018,03,27,18,23,13.50
2018,03,27,18,24,13.50
2018,03,27,18,25,13.50
2018,03,27,18,26,13.50
2018,03,27,18,27,13.40
2018,03,27,18,28,13.40
2018,03,27,18,29,13.40
2018,03,27,18,30,13.40
2018,03,27,18,31,13.40
2018,03,27,18,32,13.30
2018,03,27,18,33,13.30
2018,03,27,18,34,13.30
2018,03,27,18,35,13.30
2018,03,27,18,36,13.30
2018,03,27,18,37,13.20
2018,03,27,18,38,13.20
2018,03,27,18,39,13.20
2018,03,27,18,40,13.10
2018,03,27,18,41,13.10
2018,03,27,18,42,13.00
2018,03,27,18,43,12.90
2018,03,27,18,44,12.90
2018,03,27,18,45,12.80
2018,03,27,18,46,12.80
2018,03,27,18,47,12.70
2018,03,27,18,48,12.70
2018,03,27,18,49,12.60
2018,03,27,18,50,12.60
2018,03,27,18,51,12.60
2018,03,27,18,52,12.50
2018,03,27,18,53,12.50
2018,03,27,18,54,12.40
2018,03,27,18,55,12.40
2018,03,27,18,56,12.30
2018,03,27,18,57,12.30
2018,03,27,18,58,12.20
2018,03,27,18,59,12.20
2018,03,27,19,00,12.20
2018,03,27,19,01,12.10
2018,03,27,19,02,12.10
2018,03,27,19,03,12.10
2018,03,27,19,04,12.00
2018,03,27,19,05,12.00
2018,03,27,19,06,11.90
2018,03,27,19,07,11.90
2018,03,27,19,08,11.90
2018,03,27,19,09,11.80
2018,03,27,19,10,11.80
2018,03,27,19,11,11.80
2018,03,27,19,12,11.80
2018,03,27,19,13,11.70
2018,03,27,19,14,11.70
2018,03,27,19,15,11.70
2018,03,27,19,16,11.60
2018,03,27,19,17,11.60
2018,03,27,19,18,11.60
2018,03,27,19,19,11.50
2018,03,27,19,20,11.50
2018,03,27,19,21,11.40
2018,03,27,19,22,11.40
2018,03,27,19,23,11.40
2018,03,27,19,24,11.30
2018,03,27,19,25,11.30
2018,03,27,19,26,11.30
2018,03,27,19,27,11.20
2018,03,27,19,28,11.20
2018,03,27,19,29,11.10
2018,03,27,19,30,11.10
2018,03,27,19,31,11.10
2018,03,27,19,32,11.00
2018,03,27,19,33,11.00
2018,03,27,19,34,10.90
2018,03,27,19,35,10.90
2018,03,27,19,36,10.80
2018,03,27,19,37,10.80
2018,03,27,19,38,10.80
2018,03,27,19,39,10.70
2018,03,27,19,40,10.70
2018,03,27,19,41,10.60
2018,03,27,19,42,10.60
2018,03,27,19,43,10.50
2018,03,27,19,44,10.50
2018,03,27,19,45,10.40
2018,03,27,19,46,10.40
2018,03,27,19,47,10.40
2018,03,27,19,48,10.30
2018,03,27,19,49,10.30
2018,03,27,19,50,10.30
2018,03,27,19,51,10.30
2018,03,27,19,52,10.20
2018,03,27,19,53,10.20
2018,03,27,19,54,10.10
2018,03,27,19,55,10.10
2018,03,27,19,56,10.10
2018,03,27,19,57,10.00
2018,03,27,19,58,10.00
2018,03,27,19,59,10.00
2018,03,27,20,00,9.90
2018,03,27,20,01,9.90
2018,03,27,20,02,9.90
2018,03,27,20,03,9.90
2018,03,27,20,04,9.90
2018,03,27,20,05,9.90
2018,03,27,20,06,9.80
2018,03,27,20,07,9.80
2018,03,27,20,08,9.80
2018,03,27,20,09,9.80
2018,03,27,20,10,9.80
2018,03,27,20,11,9.80
2018,03,27,20,12,9.80
2018,03,27,20,13,9.80
2018,03,27,20,14,9.80
2018,03,27,20,15,9.80
2018,03,27,20,16,9.80
2018,03,27,20,17,9.80
2018,03,27,20,18,9.80
2018,03,27,20,19,9.80
2018,03,27,20,20,9.80
2018,03,27,20,21,9.80
2018,03,27,20,22,9.80
2018,03,27,20,23,9.90
2018,03,27,20,24,9.90
2018,03,27,20,25,9.80
2018,03,27,20,26,9.80
2018,03,27,20,27,9.80
2018,03,27,20,28,9.80
2018,03,27,20,29,9.80
2018,03,27,20,30,9.80
2018,03,27,20,31,9.80
2018,03,27,20,32,9.80
2018,03,27,20,33,9.80
2018,03,27,20,34,9.80
2018,03,27,20,35,9.80
2018,03,27,20,36,9.80
2018,03,27,20,37,9.80
2018,03,27,20,38,9.70
2018,03,27,20,39,9.70
2018,03,27,20,40,9.70
2018,03,27,20,41,9.70
2018,03,27,20,42,9.70
2018,03,27,20,43,9.70
2018,03,27,20,44,9.70
2018,03,27,20,45,9.70
2018,03,27,20,46,9.70
2018,03,27,20,47,9.70
2018,03,27,20,48,9.60
2018,03,27,20,49,9.60
2018,03,27,20,50,9.60
2018,03,27,20,51,9.60
2018,03,27,20,52,9.60
2018,03,27,20,53,9.60
2018,03,27,20,54,9.60
2018,03,27,20,55,9.60
2018,03,27,20,56,9.60
2018,03,27,20,57,9.60
2018,03,27,20,58,9.50
2018,03,27,20,59,9.50
2018,03,27,21,00,9.50
2018,03,27,21,01,9.40
2018,03,27,21,02,9.40
2018,03,27,21,03,9.40
2018,03,27,21,04,9.40
2018,03,27,21,05,9.40
2018,03,27,21,06,9.40
2018,03,27,21,07,9.40
2018,03,27,21,08,9.30
2018,03,27,21,09,9.30
2018,03,27,21,10,9.30
2018,03,27,21,11,9.40
2018,03,27,21,12,9.30
2018,03,27,21,13,9.40
2018,03,27,21,14,9.40
2018,03,27,21,15,9.40
2018,03,27,21,16,9.40
2018,03,27,21,17,9.30
2018,03,27,21,18,9.30
2018,03,27,21,19,9.40
2018,03,27,21,20,9.40
2018,03,27,21,21,9.40
2018,03,27,21,22,9.40
2018,03,27,21,23,9.40
2018,03,27,21,24,9.40
2018,03,27,21,25,9.40
2018,03,27,21,26,9.30
2018,03,27,21,27,9.30
2018,03,27,21,28,9.30
2018,03,27,21,29,9.30
2018,03,27,21,30,9.30
2018,03,27,21,31,9.30
2018,03,27,21,32,9.30
2018,03,27,21,33,9.30
2018,03,27,21,34,9.20
2018,03,27,21,35,9.20
2018,03,27,21,36,9.20
2018,03,27,21,37,9.20
2018,03,27,21,38,9.20
2018,03,27,21,39,9.20
2018,03,27,21,40,9.20
2018,03,27,21,41,9.20
2018,03,27,21,42,9.10
2018,03,27,21,43,9.10
2018,03,27,21,44,9.10
2018,03,27,21,45,9.10
2018,03,27,21,46,9.00
2018,03,27,21,47,9.00
2018,03,27,21,48,9.00
2018,03,27,21,49,9.00
2018,03,27,21,50,8.90
2018,03,27,21,51,8.90
2018,03,27,21,52,8.90
2018,03,27,21,53,8.90
2018,03,27,21,54,8.90
2018,03,27,21,55,8.90
2018,03,27,21,56,8.90
2018,03,27,21,57,8.90
2018,03,27,21,58,8.90
2018,03,27,21,59,8.90
2018,03,27,22,00,8.90
2018,03,27,22,01,8.90
2018,03,27,22,02,8.80
2018,03,27,22,03,8.80
2018,03,27,22,04,8.80
2018,03,27,22,05,8.80
2018,03,27,22,06,8.80
2018,03,27,22,07,8.80
2018,03,27,22,08,8.80
2018,03,27,22,09,8.80
2018,03,27,22,10,8.80
2018,03,27,22,11,8.80
2018,03,27,22,12,8.80
2018,03,27,22,13,8.70
2018,03,27,22,14,8.70
2018,03,27,22,15,8.70
2018,03,27,22,16,8.70
2018,03,27,22,17,8.70
2018,03,27,22,18,8.70
2018,03,27,22,19,8.70
2018,03,27,22,20,8.70
2018,03,27,22,21,8.70
2018,03,27,22,22,8.70
2018,03,27,22,23,8.70
2018,03,27,22,24,8.70
2018,03,27,22,25,8.70
2018,03,27,22,26,8.70
2018,03,27,22,27,8.70
2018,03,27,22,28,8.70
2018,03,27,22,29,8.70
2018,03,27,22,30,8.60
2018,03,27,22,31,8.60
2018,03,27,22,32,8.60
2018,03,27,22,33,8.60
2018,03,27,22,34,8.60
2018,03,27,22,35,8.60
2018,03,27,22,36,8.60
2018,03,27,22,37,8.60
2018,03,27,22,38,8.60
2018,03,27,22,39,8.60
2018,03,27,22,40,8.50
2018,03,27,22,41,8.50
2018,03,27,22,42,8.50
2018,03,27,22,43,8.50
2018,03,27,22,44,8.50
2018,03,27,22,45,8.40
2018,03,27,22,46,8.40
2018,03,27,22,47,8.40
2018,03,27,22,48,8.40
2018,03,27,22,49,8.50
2018,03,27,22,50,8.50
2018,03,27,22,51,8.50
2018,03,27,22,52,8.50
2018,03,27,22,53,8.40
2018,03,27,22,54,8.40
2018,03,27,22,55,8.40
2018,03,27,22,56,8.30
2018,03,27,22,57,8.30
2018,03,27,22,58,8.30
2018,03,27,22,59,8.30
2018,03,27,23,00,8.30
2018,03,27,23,01,8.20
2018,03,27,23,02,8.20
2018,03,27,23,03,8.20
2018,03,27,23,04,8.20
2018,03,27,23,05,8.20
2018,03,27,23,06,8.10
2018,03,27,23,07,8.10
2018,03,27,23,08,8.10
2018,03,27,23,09,8.10
2018,03,27,23,10,8.10
2018,03,27,23,11,8.10
2018,03,27,23,12,8.10
2018,03,27,23,13,8.10
2018,03,27,23,14,8.10
2018,03,27,23,15,8.10
2018,03,27,23,16,8.10
2018,03,27,23,17,8.10
2018,03,27,23,18,8.10
2018,03,27,23,19,8.10
2018,03,27,23,20,8.10
2018,03,27,23,21,8.10
2018,03,27,23,22,8.10
2018,03,27,23,23,8.10
2018,03,27,23,24,8.10
2018,03,27,23,25,8.10
2018,03,27,23,26,8.10
2018,03,27,23,27,8.10
2018,03,27,23,28,8.10
2018,03,27,23,29,8.10
2018,03,27,23,30,8.10
2018,03,27,23,31,8.10
2018,03,27,23,32,8.10
2018,03,27,23,33,8.10
2018,03,27,23,34,8.10
2018,03,27,23,35,8.10
2018,03,27,23,36,8.10
2018,03,27,23,37,8.00
2018,03,27,23,38,8.00
2018,03,27,23,39,8.00
2018,03,27,23,40,8.00
2018,03,27,23,41,8.00
2018,03,27,23,42,8.00
2018,03,27,23,43,8.00
2018,03,27,23,44,7.90
2018,03,27,23,45,7.90
2018,03,27,23,46,7.90
2018,03,27,23,47,7.90
2018,03,27,23,48,7.80
2018,03,27,23,49,7.80
2018,03,27,23,50,7.80
2018,03,27,23,51,7.80
2018,03,27,23,52,7.80
2018,03,27,23,53,7.80
2018,03,27,23,54,7.80
2018,03,27,23,55,7.80
2018,03,27,23,56,7.80
2018,03,27,23,57,7.70
2018,03,27,23,58,7.70
2018,03,27,23,59,7.70
